Location: Trondheim
(63.4170°N, 10.4170°E)
Time: 22:30:11
(UTC+02:00)

Iridium 82 - Visible Passes

Search period start: 28 July 2014 00:00
Search period end: 07 August 2014 00:00
Orbit: 776 x 779 km, 86.4° (Epoch: 28 July)

Date Brightness Start Highest point End Pass type
(mag) Time Alt. Az. Time Alt. Az. Time Alt. Az.
28 Jul 7.1 00:39:37 10° NNW 00:44:09 31° WNW 00:48:39 10° SW visible
29 Jul 6.5 00:05:54 10° NNW 00:10:49 43° W 00:15:44 10° SSW visible
29 Jul 8.0 01:48:07 10° NW 01:50:20 13° WNW 01:52:32 10° W visible
30 Jul 7.8 01:13:50 10° NNW 01:17:15 18° WNW 01:20:40 10° WSW visible
31 Jul 7.4 00:39:53 10° NNW 00:44:05 25° WNW 00:48:15 10° SW visible
01 Aug 6.9 00:06:06 10° NNW 00:10:49 35° W 00:15:30 10° SW visible
01 Aug 8.3 01:49:28 10° NW 01:50:07 10° WNW 01:50:45 10° WNW visible
01 Aug 6.3 23:32:24 10° NNW 23:37:27 50° W 23:42:28 10° SSW visible
02 Aug 8.0 01:14:19 10° NNW 01:17:05 15° WNW 01:19:51 10° W visible
03 Aug 7.7 00:40:12 10° NNW 00:43:58 21° WNW 00:47:43 10° WSW visible
04 Aug 7.3 00:06:20 10° NNW 00:10:45 29° WNW 00:15:09 10° SW visible
04 Aug 6.7 23:32:35 10° NNW 23:37:27 40° W 23:42:17 10° SSW visible
05 Aug 8.2 01:15:03 10° NW 01:16:53 12° WNW 01:18:43 10° W visible
06 Aug 8.0 00:40:36 10° NNW 00:43:49 17° WNW 00:47:02 10° WSW visible
